SCP
1 1 1 1 1 1 0 0 0 0 0 0 0 1 1 1 1 1 1 1 1 1 1 0 0 0 0 0 0 0 0 0 0 0 0 0 1 1 1 1 1 1 1
1 1 1 1 1 1 0 0 0 0 0 0 0 1 1 1 1 1 1 1 1 1 1 1 0 0 0 0 0 0 0 0 0 0 0 0 0 0 1 1 1 1 1
1 1 1 1 1 0 0 0 0 0 0 0 0 1 1 1 1 1 1 1 1 1 1 0 0 0 0 0 0 0 0 0 0 0 0 0 0 0 0 1 1 1 1
1 1 0 1 0 0 0 0 0 0 0 0 0 1 1 1 1 1 1 1 1 1 0 0 0 0 0 0 0 0 0 0 0 0 0 0 0 0 0 1 1 1 1
1 0 0 0 0 0 0 0 0 0 0 0 0 1 1 1 1 1 1 1 1 0 0 0 0 0 0 0 0 0 0 0 0 0 0 0 0 0 0 0 0 0 0
1 1 0 0 0 0 0 0 0 0 0 0 0 1 1 1 1 1 0 0 0 0 0 0 0 0 0 0 0 0 0 0 0 1 1 1 1 1 1 1 1 0 0
1 1 1 0 0 0 0 0 0 0 0 0 0 1 1 1 1 1 0 0 0 0 0 0 0 0 0 0 0 0 0 0 1 1 1 1 1 1 1 1 1 1 1
2 1 1 1 1 0 0 0 0 0 0 0 0 0 1 1 1 1 0 0 0 0 0 0 0 0 0 0 0 0 0 0 0 1 1 1 1 1 1 1 1 1 1
2 2 1 1 0 0 0 0 0 0 0 0 0 0 1 1 1 1 0 0 0 0 0 0 0 0 0 0 0 0 0 0 0 0 1 1 1 1 1 1 1 1 1
2 1 1 0 0 0 0 0 0 0 0 0 0 1 1 1 0 0 1 1 1 0 0 0 0 0 0 0 0 0 0 0 0 1 1 1 1 1 1 1 1 1 1
1 1 1 1 0 0 0 0 0 0 0 0 0 1 1 0 0 1 1 1 1 1 1 0 0 0 0 0 0 0 0 0 1 1 1 1 1 1 1 1 0 0 0
1 1 1 1 1 0 1 1 1 1 0 0 1 1 0 0 1 1 1 1 1 1 1 1 0 0 0 0 0 0 0 0 1 1 1 1 1 1 1 0 0 0 0
1 1 1 1 1 1 1 1 1 1 1 1 1 1 1 1 1 1 1 1 1 1 1 1 0 0 0 0 0 0 0 0 1 1 1 1 1 1 1 1 1 0 0
1 1 2 2 2 2 2 2 1 1 1 1 1 1 1 1 1 2 2 2 2 1 1 1 1 1 0 0 0 0 0 0 1 1 1 1 1 1 1 1 1 1 1
2 2 2 3 4 4 4 3 3 3 3 3 3 2 2 2 2 3 3 3 2 2 2 2 2 1 1 1 1 1 1 1 1 1 1 1 1 1 1 1 1 1 1
3 3 4 5 6 6 6 5 5 4 4 4 4 3 3 3 4 4 4 4 3 3 3 3 3 3 2 2 1 1 1 1 1 1 1 1 1 1 1 1 1 1 1
5 5 6 7 7 7 7 7 6 6 5 5 5 5 5 5 5 5 5 6 5 4 4 4 4 3 3 2 2 2 1 1 1 1 1 1 1 1 1 1 1 1 1
6 7 8 8 8 8 8 8 7 7 7 7 7 8 7 7 6 7 8 8 7 5 5 4 4 4 3 2 2 2 1 1 1 1 1 1 1 0 0 1 1 0 0
8 9 11 11 10 9 9 9 9 9 9 9 9 9 8 8 7 8 9 8 7 6 5 5 4 4 3 2 2 1 1 1 1 1 1 1 0 0 0 0 0 0 0
11 13 15 15 14 12 11 10 10 11 10 10 9 9 8 8 8 8 8 7 7 6 5 5 4 3 2 2 1 1 1 1 0 0 0 0 0 0 0 0 0 0 0
13 15 18 19 17 14 12 11 11 11 10 9 9 8 8 8 8 7 6 6 6 5 4 3 3 2 1 1 1 0 0 0 0 0 0 0 0 0 0 0 0 0 0
14 15 17 18 18 16 13 12 12 11 10 9 8 7 7 7 7 6 5 4 4 3 2 1 1 1 1 0 0 0 0 0 0 0 0 0 0 0 0 0 0 0 0
14 16 17 18 18 17 15 13 12 11 11 9 7 5 4 4 4 3 3 2 2 1 1 1 1 1 0 0 0 0 0 0 0 0 0 0 0 0 0 0 0 0 0
15 17 20 21 20 19 18 15 13 12 12 9 5 3 2 2 1 1 1 1 1 1 0 0 0 0 0 0 0 0 0 0 0 0 0 0 0 0 0 0 0 0 0
19 21 24 24 22 21 19 15 13 11 9 6 3 2 1 1 0 0 0 0 0 0 0 0 0 0 0 0 0 0 0 0 0 0 0 0 0 0 0 0 0 0 0
25 25 26 25 23 21 18 15 12 9 6 3 2 2 1 1 0 0 0 0 0 0 0 0 0 0 0 0 0 0 0 0 0 0 0 0 0 0 0 0 0 0 0
Wind_Speed
19 19 18 15 13 13 13 13 13 13 12 11 11 11 11 12 12 12 13 13 12 12 12 12 11 10 10 9 9 9 9 9 9 10 11 12 11 11 10 9 8 12 13
22 20 18 15 13 13 13 13 13 13 12 11 11 10 11 11 12 12 12 12 12 12 12 11 10 9 8 8 7 6 6 5 5 6 9 11 11 10 11 13 14 10 12
21 19 18 16 14 13 13 13 13 13 12 11 11 11 11 11 11 12 12 11 11 11 11 10 9 8 7 6 5 4 2 1 1 2 5 6 9 10 11 13 14 12 11
21 17 16 16 15 14 13 13 13 13 13 12 11 11 11 11 11 11 11 11 11 10 10 9 8 7 6 5 4 3 2 3 3 4 4 2 7 11 11 11 11 10 9
19 17 17 16 15 14 14 13 13 13 13 13 12 12 11 11 11 10 11 11 10 10 9 8 7 6 5 4 3 2 3 5 6 7 2 2 7 10 11 10 9 8 8
19 18 17 16 16 15 14 14 13 13 13 13 12 12 11 11 10 10 10 10 9 9 8 7 6 5 4 3 3 3 5 6 8 3 2 5 9 10 10 8 7 7 6
19 18 17 16 15 15 14 14 13 13 13 13 12 12 11 10 9 9 9 9 8 8 7 6 5 4 3 3 3 5 6 7 6 4 4 6 10 11 9 8 6 5 4
19 19 16 16 16 15 14 13 12 12 12 12 12 11 10 9 9 8 8 8 7 7 6 6 4 3 2 2 4 6 7 8 3 4 5 9 10 11 10 8 7 5 4
19 18 15 15 14 14 13 13 12 11 11 11 11 10 10 9 8 8 7 7 7 7 6 5 3 1 1 3 4 6 8 9 6 2 9 8 12 12 11 9 8 7 6
18 18 15 15 14 12 12 13 12 11 11 11 11 10 10 9 8 8 8 8 8 8 7 6 4 4 5 5 6 8 8 8 3 6 7 8 13 13 11 9 8 7 6
16 17 15 15 14 13 13 13 12 11 10 11 10 10 9 7 8 8 9 11 9 8 7 7 6 7 7 8 9 9 8 4 5 7 7 10 12 13 11 9 8 7 6
16 17 15 16 15 14 12 12 9 9 9 8 8 9 7 6 5 7 12 12 11 9 9 9 9 9 8 5 8 9 5 5 6 7 7 12 12 11 10 8 7 6 5
15 14 17 15 14 13 10 11 8 7 8 9 9 9 6 5 4 5 5 7 7 9 7 7 8 7 6 4 3 5 3 2 5 7 7 10 10 10 8 6 5 4 4
16 15 16 16 13 11 11 10 8 6 7 7 7 9 5 2 2 4 4 5 5 4 4 5 5 5 2 1 2 1 2 4 6 6 6 10 9 7 6 4 3 2 2
16 14 14 14 11 7 6 7 7 5 7 7 7 6 5 4 3 3 2 2 3 2 3 3 3 2 1 1 2 4 6 6 7 8 6 10 10 8 6 4 3 1 1
15 13 11 12 12 8 6 4 5 5 5 6 6 8 7 4 3 3 2 1 1 1 1 1 0 2 1 2 4 6 7 7 7 6 6 7 10 10 9 8 7 6 5
14 12 10 11 12 10 9 6 5 4 6 5 6 7 7 6 5 4 3 2 1 1 1 1 2 2 2 2 5 6 6 6 6 5 3 4 6 9 10 9 9 8 7
15 13 12 13 13 10 8 7 5 5 6 6 6 6 7 7 7 5 3 2 2 2 2 2 2 2 3 3 4 4 3 3 4 3 3 2 3 5 7 8 8 6 5
14 14 12 11 13 13 10 7 6 5 5 5 5 5 6 7 7 5 4 3 3 2 2 2 4 3 3 3 2 2 2 2 1 2 2 2 1 2 4 6 7 5 4
14 14 12 10 11 12 9 7 5 6 6 5 5 6 8 6 7 6 5 5 4 4 4 4 4 4 3 2 2 1 1 0 1 1 1 1 0 1 1 4 4 5 6
14 14 13 12 11 10 9 9 8 7 7 6 5 7 7 7 7 6 5 5 5 5 5 5 3 2 2 1 1 1 2 3 2 1 1 1 1 0 0 2 2 2 4
14 14 13 12 12 10 8 6 6 8 6 6 5 5 5 6 6 6 6 5 5 5 5 5 3 1 2 2 1 1 2 2 2 3 2 3 3 1 2 4 2 3 3
11 14 13 13 13 11 10 8 8 7 5 4 5 4 6 7 6 6 6 5 5 4 4 4 3 3 3 2 1 1 1 2 3 1 3 3 3 2 2 3 5 4 4
5 11 12 13 12 12 12 12 13 9 7 6 5 5 7 6 6 6 6 6 5 4 4 4 3 2 3 2 1 0 1 1 2 3 2 3 4 4 5 5 5 4 4
6 6 11 12 12 12 11 12 11 8 6 7 7 9 8 7 7 7 7 7 6 5 6 6 4 3 2 1 1 1 2 2 3 3 4 3 2 3 4 4 3 3 4
12 10 10 12 10 10 10 9 8 10 10 11 10 9 7 6 6 8 8 7 7 6 6 5 4 5 4 4 3 2 2 2 2 2 3 4 4 4 4 3 3 4 4
Wind_Direction
122 129 125 119 118 128 136 137 134 131 127 122 117 109 102 96 95 95 97 98 99 100 98 93 88 83 78 73 71 71 71 72 79 87 92 90 85 77 67 62 97 86 86
125 129 125 120 119 127 136 139 137 135 132 129 125 118 111 105 101 100 100 101 102 101 99 96 93 88 83 79 77 77 79 82 93 107 115 109 99 86 71 62 75 92 87
123 129 128 122 121 126 134 138 139 139 138 134 130 124 117 111 106 104 103 102 102 102 101 99 95 90 84 80 77 74 68 67 104 150 175 127 111 95 84 81 86 90 87
126 135 133 126 124 125 130 135 139 141 141 138 132 128 122 117 113 110 108 106 105 105 104 102 98 92 85 77 68 53 348 306 291 269 239 198 122 105 95 91 92 92 89
131 134 129 132 127 125 128 132 138 141 141 139 135 131 127 123 119 116 114 112 111 110 108 105 101 95 86 74 54 16 325 309 306 288 327 87 103 113 105 100 97 95 92
134 131 136 135 131 128 129 132 137 140 140 139 138 134 132 129 125 122 119 117 115 113 110 106 100 91 78 55 20 344 320 315 309 317 25 129 109 113 110 110 105 102 98
135 132 140 138 135 134 133 134 136 139 140 140 139 138 136 133 129 126 124 121 119 116 112 107 100 86 60 23 349 329 320 318 288 32 13 91 103 109 106 105 105 109 111
131 133 139 141 141 140 140 139 139 138 138 138 138 139 138 136 133 131 129 126 123 119 116 114 108 89 41 348 326 315 311 307 306 112 131 97 101 98 97 95 96 103 110
134 134 146 148 147 146 145 144 142 139 137 137 138 140 142 142 142 141 137 134 131 129 129 130 132 142 261 285 291 295 297 302 299 125 114 106 108 101 97 96 96 100 104
136 139 151 154 155 156 156 153 148 143 141 141 144 149 151 153 158 157 154 145 142 144 145 151 169 207 235 250 259 270 283 300 288 89 94 105 109 106 104 102 103 104 106
141 143 154 159 160 166 164 157 155 152 148 150 156 162 167 182 180 180 174 149 152 154 159 172 198 220 235 242 249 257 272 258 94 96 100 121 118 115 115 115 116 117 118
151 152 160 163 165 173 165 152 166 170 164 181 176 174 195 210 192 178 147 153 160 166 176 195 214 229 236 233 236 243 254 235 127 111 123 135 126 122 124 127 129 129 132
159 165 162 165 168 173 156 156 173 179 165 194 186 175 199 204 172 132 143 156 170 182 194 197 218 234 226 218 215 204 229 60 99 107 119 122 119 122 128 135 141 146 153
165 176 165 164 167 173 161 163 171 173 161 181 173 175 184 174 153 146 165 180 182 195 199 191 223 223 233 282 283 39 61 81 94 95 99 99 100 106 114 124 138 162 185
168 177 168 164 158 164 147 157 164 161 161 163 153 163 155 161 153 147 156 175 201 183 175 231 237 147 95 315 338 38 39 49 80 99 99 94 93 91 89 80 67 33 344
166 172 169 156 150 151 143 145 145 149 133 140 141 155 158 143 132 127 138 173 248 103 134 243 78 94 69 35 39 40 38 37 49 77 108 102 95 93 86 76 63 49 39
162 163 158 154 152 155 158 163 152 146 138 130 128 137 140 138 131 133 143 152 150 95 90 37 55 79 95 74 60 46 43 37 33 35 67 120 114 99 94 87 78 68 57
161 157 161 169 160 159 161 160 158 154 135 127 125 130 136 129 132 135 137 142 136 111 94 77 50 63 56 55 63 44 46 43 37 9 358 42 109 117 115 115 110 103 91
156 155 162 165 161 163 160 153 150 128 114 118 119 118 118 123 127 127 124 121 116 88 69 77 55 54 58 47 60 75 42 34 14 336 19 2 66 119 136 146 146 149 148
154 154 159 160 156 154 154 146 143 129 115 105 104 112 116 120 128 126 124 121 111 96 77 67 68 58 55 38 352 18 338 336 295 359 333 333 37 254 134 146 171 184 196
151 155 161 165 156 154 160 162 158 144 129 120 120 126 130 134 133 127 120 115 116 119 122 115 100 105 94 43 328 285 231 211 219 185 240 301 296 245 308 267 226 210 185
156 158 160 162 160 162 159 154 143 131 130 126 117 109 109 112 111 116 122 125 124 127 130 127 132 123 93 63 22 313 291 251 230 222 203 210 237 248 283 287 270 228 219
161 164 169 167 162 161 147 132 125 118 119 119 117 108 100 105 111 119 127 127 130 127 128 130 139 139 138 122 60 46 349 332 340 220 224 237 222 206 249 268 275 261 249
165 166 160 158 154 149 144 147 150 154 153 139 124 110 106 105 112 113 114 116 116 105 107 107 85 94 112 130 138 87 87 80 315 328 268 242 222 225 231 245 258 270 265
34 132 145 143 142 146 148 150 151 148 129 118 113 110 99 90 91 98 101 100 96 94 93 89 89 77 85 76 115 167 193 204 218 246 290 309 290 254 238 232 240 250 252
40 61 99 117 121 128 133 140 141 133 127 124 120 116 106 97 91 94 96 97 97 95 92 93 90 73 61 47 21 11 5 335 319 312 310 315 308 315 328 319 288 265 255